TimeCDT,TemperatureF,Dew PointF,Humidity,Sea Level PressureIn,VisibilityMPH,Wind Direction,Wind SpeedMPH,Gust SpeedMPH,PrecipitationIn,Events,Conditions,WindDirDegrees,DateUTC
12:54 AM,52.0,33.1,49,29.86,10.0,SW,8.1,-,N/A,,Clear,220,2012-10-09 05:54:00
1:54 AM,52.0,34.0,50,29.84,10.0,SW,10.4,-,N/A,,Clear,220,2012-10-09 06:54:00
2:54 AM,50.0,34.0,54,29.83,10.0,SSW,6.9,-,N/A,,Clear,210,2012-10-09 07:54:00
3:54 AM,51.1,34.0,52,29.80,10.0,SSW,10.4,-,N/A,,Clear,200,2012-10-09 08:54:00
4:54 AM,51.1,34.0,52,29.80,10.0,South,9.2,-,N/A,,Overcast,190,2012-10-09 09:54:00
5:54 AM,50.0,34.0,54,29.80,10.0,SSW,8.1,-,N/A,,Mostly Cloudy,200,2012-10-09 10:54:00
6:54 AM,48.9,35.1,59,29.82,10.0,SW,6.9,-,N/A,,Clear,230,2012-10-09 11:54:00
7:54 AM,48.9,35.1,59,29.82,10.0,WSW,6.9,-,N/A,,Clear,240,2012-10-09 12:54:00
8:54 AM,50.0,35.1,57,29.82,10.0,WSW,11.5,-,N/A,,Mostly Cloudy,240,2012-10-09 13:54:00
9:54 AM,53.1,35.1,50,29.83,10.0,West,9.2,-,N/A,,Mostly Cloudy,260,2012-10-09 14:54:00
10:54 AM,55.9,37.9,51,29.84,10.0,West,6.9,-,N/A,,Mostly Cloudy,260,2012-10-09 15:54:00
11:54 AM,54.0,43.0,66,29.85,10.0,WNW,17.3,21.9,N/A,,Mostly Cloudy,290,2012-10-09 16:54:00
12:23 PM,46.4,42.8,87,29.86,9.0,NNW,23.0,32.2,0.00,Rain,Light Rain,330,2012-10-09 17:23:00
12:54 PM,46.0,43.0,89,29.88,6.0,NNW,17.3,24.2,0.02,Rain,Light Rain,330,2012-10-09 17:54:00
1:01 PM,46.4,42.8,87,29.87,5.0,NW,13.8,24.2,0.00,Rain,Rain,320,2012-10-09 18:01:00
1:54 PM,46.0,43.0,89,29.88,6.0,NW,8.1,-,0.06,Rain,Light Rain,310,2012-10-09 18:54:00
2:11 PM,44.6,42.8,93,29.88,6.0,NW,16.1,20.7,0.01,Rain,Light Rain,320,2012-10-09 19:11:00
2:22 PM,44.6,41.0,87,29.88,5.0,NW,12.7,-,0.03,Rain,Light Rain,310,2012-10-09 19:22:00
2:54 PM,44.1,39.9,85,29.91,4.0,West,8.1,16.1,0.09,Rain,Rain,280,2012-10-09 19:54:00
3:54 PM,45.0,41.0,86,29.91,10.0,SW,8.1,-,0.03,,Overcast,220,2012-10-09 20:54:00
4:11 PM,44.6,42.8,93,29.90,10.0,SW,6.9,-,N/A,,Overcast,230,2012-10-09 21:11:00
4:27 PM,44.6,41.0,87,29.90,10.0,WSW,6.9,-,N/A,,Overcast,240,2012-10-09 21:27:00
4:54 PM,46.0,43.0,89,29.91,10.0,WSW,5.8,-,N/A,,Partly Cloudy,250,2012-10-09 21:54:00
5:54 PM,46.0,37.9,73,29.91,10.0,West,9.2,-,N/A,,Clear,280,2012-10-09 22:54:00
6:54 PM,44.1,36.0,73,29.93,10.0,West,8.1,-,N/A,,Clear,280,2012-10-09 23:54:00
7:54 PM,44.1,33.1,65,29.96,10.0,WNW,8.1,-,N/A,,Scattered Clouds,300,2012-10-10 00:54:00
8:54 PM,42.1,30.9,65,29.98,10.0,West,10.4,-,N/A,,Scattered Clouds,280,2012-10-10 01:54:00
9:54 PM,39.9,30.9,70,30.01,10.0,WNW,9.2,-,N/A,,Clear,300,2012-10-10 02:54:00
10:54 PM,39.9,30.9,70,30.02,10.0,WNW,9.2,-,N/A,,Overcast,290,2012-10-10 03:54:00
11:54 PM,37.9,30.0,73,30.03,10.0,WNW,9.2,-,N/A,,Clear,290,2012-10-10 04:54:00